Location: Peterborough
(44.3091°N, 78.3197°W)
Time: 05:27:47
(UTC-04:00)

Vanguard 2 - Pass Details

Date: 30 March 2023
Orbit: 552 x 2926 km, 32.9° (Epoch: 04 June)

Event Time Altitude Azimuth Distance (km) Brightness Sun altitude
Rises 12:24:48 0° 273° (W) 6,014 11.9 47.9°
Reaches altitude 10° 12:32:35 10° 249° (WSW) 4,382 11.5 48.3°
Maximum altitude 12:36:18 12° 230° (SW) 3,868 11.5 48.5°
Drops below altitude 10° 12:39:35 10° 210° (SSW) 3,704 11.6 48.7°
Sets 12:44:44 0° 181° (S) 4,128 11.9 48.9°
